sat.trackr.live / text

‹ back to catalog

KUIPER-00320

NORAD 68601 · 2026-072AE

PAYLOAD ACTIVE UNKNOWN

§ Identity

Operator
Country
US
Launch date
2026-04-04
Launch site
AFETR
Launch vehicle
Mass (kg)
RCS (m²)

External: N2YO · Heavens-Above · Gunter

§ Orbital elements

Epoch: 2026-09-19T23:38:45.721824Z

Period
97.30 min
Inclination
51.9021°
Eccentricity
0.0000794
Mean motion
14.79929962 rev/d
Perigee alt
629.0 km
Apogee alt
630.1 km
Semi-major
7,007.7 km
B*
-3.7133e-5
RAAN
121.4732°
Arg perigee
105.9380°
Mean anomaly
254.1670°
Rev number
2,536

§ Raw data

KUIPER-003201 68601U 26072AE  26262.98525141 -.00000504  00000+0 -37133-4 0  99922 68601  51.9021 121.4732 0000794 105.9380 254.1670 14.79929962 25366

JSON: /api/v1/satellites/68601 · /tle

For live sub-satellite position, see the globe view (requires WebGL).

§ Visibility from observer

Set your observer location to see the next 7 days of passes ≥ 10°. The values pass through the URL so the page stays shareable.

No JS? Fill the form by hand. The geolocation button needs JavaScript.